CW3330 Weather Reports


time (UTC)temp
C
wind
direction
speed
KPH
gust
KPH
rain 1hr
cm
rain 24hr
cm
rain mn
cm
humidity
%
barometer
mb
20260508050304 5 76 0.0 0.0 0.00 0.00 0.00 87 1020.2
20260508045748 4 76 0.0 0.0 0.00 0.00 0.00 87 1020.1
20260508044305 3 76 0.0 0.0 0.00 0.00 0.00 87 1020.2
20260508043304 3 76 0.0 0.0 0.00 0.00 0.00 88 1020.1
20260508042307 3 76 0.0 0.0 0.00 0.00 0.00 88 1020.1
20260508041303 3 76 0.0 0.0 0.00 0.00 0.00 88 1020.0
20260508040304 3 76 0.0 0.0 0.00 0.00 0.00 88 1019.9
20260508035306 2 76 0.0 0.0 0.00 0.00 0.00 88 1019.8
20260508034303 3 76 0.0 0.0 0.00 0.00 0.00 89 1019.9
20260508033304 2 76 0.0 0.0 0.00 0.00 0.00 88 1019.8
20260508032316 2 76 0.0 0.0 0.00 0.00 0.00 88 1019.7
20260508031303 3 76 0.0 0.0 0.00 0.00 0.00 87 1019.8
20260508030303 3 76 0.0 0.0 0.00 0.00 0.00 87 1019.8
20260508025316 3 76 0.0 0.0 0.00 0.00 0.00 87 1019.8
20260508024303 3 76 0.0 0.0 0.00 0.00 0.00 86 1019.7
20260508023304 3 76 0.0 0.0 0.00 0.00 0.00 86 1019.6
20260508022307 3 76 0.0 0.0 0.00 0.00 0.00 86 1019.6
20260508021303 3 76 0.0 0.0 0.00 0.00 0.00 85 1019.6
20260508020303 4 76 0.0 0.0 0.00 0.00 0.00 85 1019.6
20260508015305 4 76 0.0 0.0 0.00 0.00 0.00 85 1019.6
20260508014303 4 76 0.0 0.0 0.00 0.00 0.00 85 1019.5
20260508013305 4 76 0.0 0.0 0.00 0.00 0.00 85 1019.4
20260508012307 4 76 0.0 0.0 0.00 0.00 0.00 85 1019.4
20260508011304 4 76 0.0 0.0 0.00 0.00 0.00 83 1019.4
20260508010304 4 76 0.0 0.0 0.00 0.00 0.00 84 1019.5
20260508005306 5 76 0.0 0.0 0.00 0.00 0.00 83 1019.4
20260508004303 5 76 0.0 0.0 0.00 0.00 0.00 82 1019.4
20260508002307 5 76 0.0 0.0 0.00 0.00 0.00 82 1019.3
20260508001303 5 76 0.0 0.0 0.00 0.00 0.00 82 1019.3
20260508000741 5 76 0.0 0.0 0.00 0.00 0.00 82 1019.3
20260507235306 5 76 0.0 0.0 0.00 0.00 0.00 81 1019.3
20260507234304 5 76 0.0 0.0 0.00 0.00 0.00 81 1019.3
20260507233305 5 76 0.0 0.0 0.00 0.00 0.00 81 1019.3
20260507232742 5 76 0.0 0.0 0.00 0.00 0.00 81 1019.3
20260507231303 6 76 0.0 0.0 0.00 0.00 0.00 81 1019.3
20260507230306 6 76 0.0 0.0 0.00 0.00 0.00 80 1019.2
20260507225307 6 76 0.0 0.0 0.00 0.00 0.00 79 1019.2
20260507224305 6 76 0.0 0.0 0.00 0.00 0.00 79 1019.2
20260507223306 6 76 0.0 0.0 0.00 0.00 0.00 78 1019.3
20260507221306 7 76 0.0 0.0 0.00 0.00 0.00 77 1019.2
20260507220323 7 76 0.0 3.2 0.00 0.00 0.00 76 1019.0
20260507215307 7 76 1.6 3.2 0.00 0.00 0.00 75 1019.1
20260507214305 7 76 3.2 4.8 0.00 0.00 0.00 75 1019.1
20260507213307 7 76 3.2 4.8 0.00 0.00 0.00 75 1019.0
20260507212757 7 76 3.2 4.8 0.00 0.00 0.00 74 1019.0
20260507211305 8 76 3.2 4.8 0.00 0.00 0.00 74 1018.9
20260507210305 8 76 3.2 4.8 0.00 0.00 0.00 73 1018.9
20260507205307 8 78 3.2 4.8 0.00 0.00 0.00 73 1018.9
20260507204746 8 78 3.2 4.8 0.00 0.00 0.00 72 1018.7
20260507203305 9 78 1.6 4.8 0.00 0.00 0.00 72 1018.6
20260507202320 9 78 1.6 4.8 0.00 0.00 0.00 71 1018.7
20260507201320 9 78 0.0 6.4 0.00 0.00 0.00 70 1018.6
20260507200749 10 78 3.2 6.4 0.00 0.00 0.00 69 1018.6
20260507195306 10 79 3.2 8.0 0.00 0.00 0.00 68 1018.6
20260507194305 10 82 3.2 6.4 0.00 0.00 0.00 67 1018.5
20260507193741 10 59 4.8 8.0 0.00 0.00 0.00 66 1018.4
20260507192306 11 78 1.6 6.4 0.00 0.00 0.00 63 1018.3
20260507191754 11 78 1.6 4.8 0.00 0.00 0.00 56 1018.1
20260507190307 11 79 1.6 8.0 0.00 0.00 0.00 58 1017.9
20260507184307 12 90 6.4 12.9 0.00 0.00 0.00 54 1017.7
20260507183311 12 73 8.0 14.5 0.00 0.00 0.00 53 1017.7
20260507182307 12 84 4.8 16.1 0.00 0.00 0.00 53 1017.6
20260507181305 13 66 6.4 16.1 0.00 0.00 0.00 52 1017.5
20260507180306 13 77 6.4 16.1 0.00 0.00 0.00 50 1017.5
20260507175307 13 80 8.0 17.7 0.00 0.00 0.00 50 1017.4
20260507174305 13 110 6.4 19.3 0.00 0.00 0.00 50 1017.3
20260507173306 13 48 11.3 22.5 0.00 0.00 0.00 46 1017.2
20260507172758 13 59 4.8 17.7 0.00 0.00 0.00 54 1017.2
20260507171306 14 32 4.8 19.3 0.00 0.00 0.00 53 1017.1
20260507170328 14 74 9.7 19.3 0.00 0.00 0.00 55 1017.1
20260507165312 14 104 6.4 22.5 0.00 0.00 0.00 55 1017.1
20260507164311 14 46 9.7 20.9 0.00 0.00 0.00 54 1017.0
20260507163309 15 84 8.0 19.3 0.00 0.00 0.00 52 1016.9
20260507162307 15 71 6.4 17.7 0.00 0.00 0.00 46 1016.9
20260507161306 15 48 9.7 29.0 0.00 0.00 0.00 50 1016.9
20260507160306 16 51 12.9 29.0 0.00 0.00 0.00 49 1016.8
20260507155306 16 82 8.0 20.9 0.00 0.00 0.00 49 1016.8
20260507154305 16 49 11.3 19.3 0.00 0.00 0.00 48 1016.7
20260507153322 16 71 12.9 25.7 0.00 0.00 0.00 49 1016.8
20260507152306 16 86 11.3 22.5 0.00 0.00 0.00 47 1016.7
20260507151306 16 57 9.7 25.7 0.00 0.00 0.00 44 1016.6
20260507150755 16 46 12.9 25.7 0.00 0.00 0.00 49 1016.5
20260507145308 16 93 8.0 20.9 0.00 0.00 0.00 50 1016.4
20260507144319 16 94 9.7 20.9 0.00 0.00 0.00 48 1016.5
20260507143306 16 81 11.3 19.3 0.00 0.00 0.00 51 1016.5
20260507142307 16 57 11.3 25.7 0.00 0.00 0.00 51 1016.5
20260507141749 16 76 17.7 25.7 0.00 0.00 0.00 50 1016.5
20260507140306 16 29 9.7 19.3 0.00 0.00 0.00 52 1016.6
20260507135306 16 13 12.9 25.7 0.00 0.00 0.00 53 1016.4
20260507134307 16 61 11.3 27.4 0.00 0.00 0.00 54 1016.5
20260507133306 16 205 4.8 25.7 0.00 0.00 0.00 48 1016.4
20260507132307 16 26 11.3 19.3 0.00 0.00 0.00 57 1016.5
20260507131306 16 28 11.3 22.5 0.00 0.00 0.00 54 1016.4
20260507130740 16 53 9.7 20.9 0.00 0.00 0.00 56 1016.3
20260507125307 16 66 17.7 29.0 0.00 0.00 0.00 52 1016.5
20260507124306 16 52 14.5 27.4 0.00 0.00 0.00 53 1016.4
20260507123743 16 13 9.7 22.5 0.00 0.00 0.00 54 1016.3
20260507122307 16 84 4.8 19.3 0.00 0.00 0.00 50 1016.2
20260507121306 15 110 8.0 22.5 0.00 0.00 0.00 56 1016.2
20260507120306 16 57 9.7 20.9 0.00 0.00 0.00 56 1016.1
20260507115307 15 91 12.9 22.5 0.00 0.00 0.00 57 1016.2
20260507114306 15 76 12.9 22.5 0.00 0.00 0.00 56 1016.2
20260507113746 15 116 12.9 27.4 0.00 0.00 0.00 55 1016.2
20260507112307 15 68 8.0 22.5 0.00 0.00 0.00 56 1016.2
20260507111307 15 102 9.7 22.5 0.00 0.00 0.00 51 1016.1
20260507110307 15 69 3.2 20.9 0.00 0.00 0.00 58 1016.1
20260507105307 15 77 8.0 19.3 0.00 0.00 0.00 56 1016.2
20260507104305 15 82 12.9 22.5 0.00 0.00 0.00 53 1016.2
20260507103307 14 89 9.7 17.7 0.00 0.00 0.00 60 1016.2
20260507102307 14 70 8.0 20.9 0.00 0.00 0.00 62 1016.1
20260507100306 13 81 9.7 17.7 0.00 0.00 0.00 63 1015.9
20260507095306 13 53 11.3 19.3 0.00 0.00 0.00 66 1015.9
20260507094306 13 85 6.4 20.9 0.00 0.00 0.00 66 1015.9
20260507092307 12 82 9.7 22.5 0.00 0.00 0.00 61 1015.8
20260507091319 12 80 6.4 20.9 0.00 0.00 0.00 63 1015.8
20260507090746 12 55 8.0 17.7 0.00 0.00 0.00 60 1015.7
20260507085306 12 98 6.4 19.3 0.00 0.00 0.00 66 1015.6
20260507084306 12 80 9.7 30.6 0.00 0.00 0.00 65 1015.5
20260507083306 12 17 9.7 17.7 0.00 0.00 0.00 67 1015.5
20260507082744 11 65 8.0 20.9 0.00 0.00 0.00 68 1015.3
20260507081306 11 5 8.0 20.9 0.00 0.00 0.00 68 1015.3
20260507080307 11 52 9.7 20.9 0.00 0.00 0.00 70 1015.5
20260507075307 11 133 11.3 19.3 0.00 0.00 0.00 69 1015.2
20260507074305 10 69 11.3 17.7 0.00 0.00 0.00 70 1015.1
20260507073305 10 107 8.0 19.3 0.00 0.00 0.00 71 1015.0
20260507072307 10 83 6.4 22.5 0.00 0.00 0.00 72 1014.9
20260507071305 10 71 8.0 20.9 0.00 0.00 0.00 69 1015.2
20260507070306 10 76 11.3 17.7 0.00 0.00 0.00 77 1015.0
20260507065307 9 57 4.8 20.9 0.00 0.00 0.00 78 1014.9
20260507064305 9 49 3.2 17.7 0.00 0.00 0.00 79 1015.0
20260507063800 9 107 6.4 20.9 0.00 0.00 0.00 80 1014.9
20260507062306 8 85 6.4 19.3 0.00 0.00 0.00 81 1014.8
20260507061305 8 45 8.0 19.3 0.00 0.00 0.00 83 1014.6
20260507060740 8 100 4.8 17.7 0.00 0.00 0.00 85 1014.5
20260507055306 8 70 8.0 16.1 0.00 0.00 0.00 85 1014.5
20260507054306 7 83 6.4 16.1 0.00 0.00 0.00 87 1014.5
20260507053306 7 70 3.2 14.5 0.00 0.00 0.00 88 1014.5
20260507052307 7 86 6.4 11.3 0.00 0.00 0.00 90 1014.3
20260507051306 6 64 4.8 8.0 0.00 0.00 0.00 91 1014.2